TimeCDT,TemperatureF,Dew PointF,Humidity,Sea Level PressureIn,VisibilityMPH,Wind Direction,Wind SpeedMPH,Gust SpeedMPH,PrecipitationIn,Events,Conditions,WindDirDegrees,DateUTC
12:53 AM,60.1,50.0,69,29.74,10.0,West,4.6,-,N/A,,Scattered Clouds,260,2011-10-14 05:53:00
1:53 AM,57.9,48.9,72,29.75,10.0,West,4.6,-,N/A,,Clear,270,2011-10-14 06:53:00
2:53 AM,57.0,48.0,72,29.76,10.0,West,4.6,-,N/A,,Clear,280,2011-10-14 07:53:00
3:53 AM,57.0,46.9,69,29.78,10.0,West,5.8,-,N/A,,Partly Cloudy,280,2011-10-14 08:53:00
4:53 AM,55.0,46.0,72,29.80,10.0,West,5.8,-,N/A,,Partly Cloudy,280,2011-10-14 09:53:00
5:53 AM,54.0,45.0,72,29.81,10.0,West,3.5,-,N/A,,Clear,260,2011-10-14 10:53:00
6:53 AM,50.0,44.1,80,29.81,10.0,South,4.6,-,N/A,,Clear,190,2011-10-14 11:53:00
7:53 AM,55.4,44.6,67,29.84,10.0,SW,3.5,-,N/A,,Clear,230,2011-10-14 12:53:00
8:53 AM,61.0,44.1,54,29.85,10.0,West,8.1,-,N/A,,Partly Cloudy,270,2011-10-14 13:53:00
9:53 AM,66.0,43.0,43,29.87,10.0,West,12.7,19.6,N/A,,Partly Cloudy,260,2011-10-14 14:53:00
10:53 AM,71.1,43.0,36,29.87,10.0,West,10.4,18.4,N/A,,Clear,280,2011-10-14 15:53:00
11:53 AM,73.0,39.9,30,29.86,10.0,WNW,16.1,21.9,N/A,,Partly Cloudy,290,2011-10-14 16:53:00
12:53 PM,75.0,35.1,23,29.85,10.0,WNW,12.7,25.3,N/A,,Clear,300,2011-10-14 17:53:00
1:53 PM,75.2,35.6,24,29.85,10.0,WNW,13.8,21.9,N/A,,Partly Cloudy,290,2011-10-14 18:53:00
2:53 PM,75.0,33.1,22,29.82,10.0,WNW,17.3,27.6,N/A,,Partly Cloudy,300,2011-10-14 19:53:00
3:53 PM,75.0,34.0,22,29.82,10.0,West,16.1,27.6,N/A,,Partly Cloudy,280,2011-10-14 20:53:00
4:53 PM,73.9,34.0,23,29.83,10.0,West,13.8,-,N/A,,Partly Cloudy,280,2011-10-14 21:53:00
5:53 PM,72.0,35.1,26,29.83,10.0,West,9.2,18.4,N/A,,Partly Cloudy,270,2011-10-14 22:53:00
6:53 PM,68.0,36.0,31,29.87,10.0,West,3.5,-,N/A,,Partly Cloudy,260,2011-10-14 23:53:00
7:53 PM,66.2,37.4,35,29.89,10.0,SW,3.5,-,N/A,,Partly Cloudy,230,2011-10-15 00:53:00
8:53 PM,61.0,41.0,48,29.88,10.0,SSW,4.6,-,N/A,,Partly Cloudy,210,2011-10-15 01:53:00
9:53 PM,66.0,41.0,40,29.88,10.0,WSW,5.8,-,N/A,,Mostly Cloudy,250,2011-10-15 02:53:00
10:53 PM,66.9,41.0,39,29.90,10.0,West,8.1,16.1,N/A,,Overcast,260,2011-10-15 03:53:00
11:53 PM,64.4,39.2,40,29.94,10.0,WNW,8.1,-,N/A,,Scattered Clouds,290,2011-10-15 04:53:00